Voltar ao catálogo

DELTA 1 DEB

AtivoSSO
NORAD 15788·DEBRIS·🇺🇸 United States

Lançado Mar 5, 1978 de Vandenberg Space Force Base

Loading…

Próximas Passagens (próximas 24 horas)

TLE

AtualizadoSource: Space-Track

Época: Sep 14, 2026, 05:18 UTC

1 15788U 78026GT  26257.22143918  .00000823  00000-0  62108-3 0  9997
2 15788  98.8852 168.0074 0118844 340.1374 173.7564 13.93673998215442

Acompanhe DELTA 1 DEB em tempo real com AllMySat

Download on the App Store